This is the latest recevied weather packets stored in our database for station/object OM8AGG-15. If no packets are shown the sender has not sent any weather packets the latest 10 day(s).
| Time | Temp. | Humidity | Pressure | Rain* | Wind** | Luminosity | Snow |
|---|---|---|---|---|---|---|---|
| 1777627444 | 12.22° C | 33% | 1025.9 hPa | - | - | - | - |
| 1777626544 | 11.67° C | 31% | 1026.1 hPa | - | - | - | - |
| 1777623847 | 11.67° C | 27% | 1026.3 hPa | - | - | - | - |
| 1777622947 | 11.11° C | 26% | 1026.3 hPa | - | - | - | - |
| 1777622043 | 10.56° C | 25% | 1026.4 hPa | - | - | - | - |
| 1777621146 | 10° C | 25% | 1026.4 hPa | - | - | - | - |
| 1777620246 | 10° C | 26% | 1026.6 hPa | - | - | - | - |
| 1777619345 | 9.44° C | 26% | 1026.5 hPa | - | - | - | - |
| 1777618443 | 9.44° C | 26% | 1026.5 hPa | - | - | - | - |
| 1777617543 | 8.89° C | 27% | 1026.5 hPa | - | - | - | - |
| 1777615745 | 10.56° C | 36% | 1026.5 hPa | - | - | - | - |
| 1777614842 | 10° C | 35% | 1026.5 hPa | - | - | - | - |
| 1777613943 | 7.22° C | 42% | 1026.5 hPa | - | - | - | - |
| 1777613042 | 7.78° C | 43% | 1026.4 hPa | - | - | - | - |
| 1777612145 | 5° C | 48% | 1026.5 hPa | - | - | - | - |
| 1777611242 | 2.22° C | 53% | 1026.6 hPa | - | - | - | - |
| 1777610343 | 2.22° C | 53% | 1026.3 hPa | - | - | - | - |
| 1777609444 | 1.67° C | 54% | 1026.4 hPa | - | - | - | - |
| 1777608545 | 1.67° C | 56% | 1026.3 hPa | - | - | - | - |
| 1777607647 | 1.11° C | 59% | 1026.4 hPa | - | - | - | - |
| 1777606745 | 1.11° C | 60% | 1026.4 hPa | - | - | - | - |
| 1777605844 | 1.67° C | 59% | 1026.3 hPa | - | - | - | - |
| 1777604944 | 1.11° C | 61% | 1026.4 hPa | - | - | - | - |
| 1777604044 | 1.67° C | 54% | 1026.4 hPa | - | - | - | - |
| 1777603141 | 1.11° C | 60% | 1026.5 hPa | - | - | - | - |
* Rain since midnight (hover to see other rain measurements)
** Current wind speed in m/s (hover to see current wind gust speed)